Torna al catalogo

SL-14 DEB

AttivoPO
NORAD 45357·DEBRIS·🇷🇺 Russia

Lanciato Aug 15, 1991 da Plesetsk Cosmodrome

Loading…

Prossimi Passaggi (prossime 24 ore)

TLE

AggiornatoSource: Space-Track

Epoca: Sep 14, 2026, 07:37 UTC

1 45357U 91056CR  26257.31802612  .00000472  00000-0  86528-3 0  9995
2 45357  82.5683  27.5146 0070879  33.9797 326.5846 13.37402346318179

Traccia SL-14 DEB in tempo reale con AllMySat

Download on the App Store